Regional Weather Roundup
Issued by NWS Jackson, KY

Home | Current Version | Previous Version | Text Only | Print | Product List | Glossary Off
Versions: 1 2 3 4 5 6 7 8 9 10 11 12 13 14 15 16 17 18 19 20 21 22 23 24 25 26 27 28 29 30 31 32 33 34 35 36 37 38 39 40 41 42 43 44 45 46 47 48 49 50

938
ASUS43 KJKL 231010
RWRJKL

EAST KENTUCKY HOURLY WEATHER ROUNDUP
NATIONAL WEATHER SERVICE JACKSON KY
500 AM EST THU NOV 23 2017

NOTE: "FAIR" INDICATES FEW OR NO CLOUDS BELOW 12,000 FEET WITH
NO SIGNIFICANT WEATHER AND/OR OBSTRUCTIONS TO VISIBILITY.

* THESE REPORTS ARE NOT UNDER NWS QUALITY CONTROL AND MAY NOT
  REPORT WEATHER SUCH AS PRECIPITATION AND FOG.

KYZ079-080-083-085-087-088-110-112-115-119-120-231100
...EASTERN KENTUCKY...

CITY           SKY/WX    TMP DP  RH WIND       PRES   REMARKS
JACKSON        CLOUDY    27  21  78 NE5       30.16R WCI  22
LONDON         CLOUDY    26  21  81 NE3       30.16R
SOMERSET*      CLOUDY    27  23  86 CALM      30.19S
MONTICELLO*    CLEAR     19  16  88 NE8       30.20R WCI   9
WILLIAMSBURG*  CLOUDY    23  23 100 CALM      30.16R
MIDDLESBORO*   CLEAR     25  24  96 CALM      30.16R
HARLAN APT*    CLOUDY    27  27 100 CALM      30.13S
PIKE CO APT*     N/A     25  25 100 N7        30.15R WCI  17
BIG SANDY APT* CLOUDY    25  23  94 CALM      30.17R
MOREHEAD APT*  CLOUDY    25  21  86 CALM      30.20R
$$

KYZ035-036-041-042-044-050-067-078-099-231100
...CENTRAL KENTUCKY...

CITY           SKY/WX    TMP DP  RH WIND       PRES   REMARKS
MT STERLING*   CLOUDY    23  21  93 N5        30.20R WCI  17
DANVILLE*      CLOUDY    21  21 100 N6        30.19R WCI  14
LEXINGTON      CLOUDY    23  18  81 CALM      30.19R
FRANKFORT      CLOUDY    22  17  81 CALM      30.19S
LOUISVILLE     MOCLDY    29  24  82 CALM      30.20F
LEBANON*         N/A     23  19  86 CALM      30.19S
GLASGOW*       CLOUDY    24  22  95 CALM      30.18S
BOWLING GREEN  CLOUDY    25  22  88 CALM      30.19F
$$

KYZ091>093-OHZ055-061-077-WVZ005-015-034-035-042-231100
...SOUTHERN OHIO/WEST VIRGINIA...

CITY           SKY/WX    TMP DP  RH WIND       PRES   REMARKS
COVINGTON      MOCLDY    24  23  96 CALM      30.18F
COLUMBUS       CLOUDY    24  22  91 CALM      30.19F
DAYTON         MOCLDY    26  22  84 S5        30.18F WCI  20
WILMINGTON     CLEAR     21  21 100 CALM      30.18F
HUNTINGTON     CLOUDY    25  22  88 CALM      30.19S
CHARLESTON     CLOUDY    24  21  88 CALM      30.18F
PINEVILLE*       N/A     22  20  93 MISG      30.19R
BECKLEY        CLEAR     22  18  85 CALM      30.10S
BLUEFIELD      CLOUDY    23  19  85 CALM      30.08S
LOGAN CO APT*    N/A     27  23  86 CALM      30.14R
$$

VAZ002-007-008-TNZ017-027-036-066-071-231100
...SOUTHWEST VIRGINIA/EAST TENNESSEE...

CITY           SKY/WX    TMP DP  RH WIND       PRES   REMARKS
WISE*          CLOUDY    28  27  93 CALM      30.08F
JONESVILLE*      N/A     23  23 100 CALM      30.15S
ABINGDON*      CLOUDY    28  24  86 CALM      30.10S
BRISTOL        CLOUDY    25  24  96 CALM      30.12S
MORRISTOWN*    PTSUNNY   32  25  74 CALM      30.10F
SEVIERVILLE*   SUNNY     27  27 100 CALM      30.12S
KNOXVILLE      CLEAR     32  29  88 E3        30.11S
LAFOLLETTE*    SUNNY     27  25  93 CALM      30.18R
OAK RIDGE      CLEAR     31  28  89 CALM      30.14F
CROSSVILLE     CLOUDY    27  22  81 N5        30.10R WCI  22
NASHVILLE      CLEAR     27  23  85 CALM      30.17F
$$

...KEY TO REMARKS...
VSB - VISIBILITY IN MILES
WCI - WIND CHILL INDEX
HX  - HEAT INDEX

$$




USA.gov is the U.S. government's official web portal to all federal, state and local government web resources and services.